This is the latest recevied weather packets stored in our database for station/object KY4LEX. If no packets are shown the sender has not sent any weather packets the latest 10 day(s).
| Time | Temp. | Humidity | Pressure | Rain* | Wind** | Luminosity | Snow |
|---|---|---|---|---|---|---|---|
| 1777726664 | 7.78° C | 66% | 1022.9 hPa | 0 mm | - | 46 W/m² | - |
| 1777726362 | 7.22° C | 69% | 1022.7 hPa | 0 mm | - | 51 W/m² | - |
| 1777726059 | 7.22° C | 70% | 1022.7 hPa | 0 mm | - | 43 W/m² | - |
| 1777725756 | 7.22° C | 73% | 1022.8 hPa | 0 mm | - | 43 W/m² | - |
| 1777725454 | 6.67° C | 74% | 1022.8 hPa | 0 mm | - | 43 W/m² | - |
| 1777725151 | 6.67° C | 73% | 1023.1 hPa | 0 mm | - | 48 W/m² | - |
| 1777724848 | 6.67° C | 73% | 1023.1 hPa | 0 mm | - | 42 W/m² | - |
| 1777724544 | 6.67° C | 76% | 1023 hPa | 0 mm | - | 68 W/m² | - |
| 1777724242 | 6.67° C | 77% | 1023 hPa | 0 mm | - | 76 W/m² | - |
| 1777723940 | 6.11° C | 77% | 1023 hPa | 0 mm | - | 65 W/m² | - |
| 1777723636 | 6.11° C | 79% | 1023.1 hPa | 0 mm | - | 55 W/m² | - |
| 1777723333 | 5.56° C | 82% | 1023 hPa | 0 mm | - | 56 W/m² | - |
| 1777723031 | 5.56° C | 85% | 1023 hPa | 0 mm | - | 50 W/m² | - |
| 1777722727 | 5° C | 91% | 1022.6 hPa | 0 mm | - | 46 W/m² | - |
| 1777722423 | 4.44° C | 94% | 1022.7 hPa | 0 mm | - | 47 W/m² | - |
| 1777722121 | 4.44° C | 97% | 1022.5 hPa | 0 mm | - | 43 W/m² | - |
| 1777721818 | 3.89° C | 97% | 1022.3 hPa | 0 mm | - | 40 W/m² | - |
| 1777721516 | 3.89° C | 98% | 1022.5 hPa | 0 mm | - | 38 W/m² | - |
| 1777721214 | 3.89° C | 98% | 1022.4 hPa | 0 mm | - | 32 W/m² | - |
| 1777720911 | 3.89° C | 98% | 1022.6 hPa | 0 mm | - | 29 W/m² | - |
| 1777720608 | 3.33° C | 98% | 1022.6 hPa | 0 mm | - | 23 W/m² | - |
| 1777720305 | 3.33° C | 98% | 1022.4 hPa | 0 mm | - | 20 W/m² | - |
| 1777720003 | 2.78° C | 98% | 1022.3 hPa | 0 mm | - | 17 W/m² | - |
| 1777719700 | 2.78° C | 98% | 1022.5 hPa | 0 mm | - | 12 W/m² | - |
| 1777719397 | 2.78° C | 98% | 1022.3 hPa | 0 mm | - | 7 W/m² | - |
* Rain latest hour (hover to see other rain measurements)
** Current wind speed in m/s (hover to see current wind gust speed)